www.pogodaiklimat.ru

Погода и климат >> Архив погоды >> Аргентина >> San Martin


ПОГОДА в San Martin

  • Прогноз погоды в San Martin
  • Монитор погоды в San Martin
  • Климат города

АРХИВ ПОГОДЫ в San Martin

Время (UTC), дата Ветер
(напр.,м/с)
 
Видим.   Явления Облачность Т
(С)
Тd
(С)
f
(%)
Тe
(С)
Тes
(С)
Комфортность P
(гПа)
Po
(гПа)
Тmin
(С)
Tmax
(С)
R
(мм)
R24
(мм)
S
(см)
18 17.09 СВ 4 15 км ясно +27.5 +3.2 21 +26 +35 жарко 1002.3 929.6
21 17.09 В 7 15 км ясно +26.4 +3.3 22 +25 +26 комфорт 1001.8 928.8
00 18.09 СВ 1 15 км ясно +19.8 +5.2 38 +21 +21 комфорт 1002.5 928.9 +14.0 +28.3
03 18.09 ЮЗ 1 15 км ясно +16.9 +7.0 52 +18 +18 1000.1 927.3
06 18.09 ЮЗ 1 15 км ясно +13.4 +6.1 61 +14 +14 996.9 924.6
09 18.09 штиль 0 15 км 3/3 1050 м
[Sc]
+12.4 +6.1 65 +12 +12 998.6 925.8
12 18.09 ЮВ 1 15 км ясно +14.2 +4.6 52 +15 +17 1000.8 927.4 +10.4 +20.1
15 18.09 Ю 4 15 км 4/0
[Cs]
+21.6 +6.9 39 +22 +30 комфорт 999.4 926.6
18 18.09 ЮЗ 1 15 км 3/1 1050 м
[Cu hum Ci sp]
+27.4 -0.8 16 +25 +39 комфорт 995.5 923.3
21 18.09 Ю 4 15 км 4/3 1050 м
[Cu hum Ci sp]
+21.4 -1.9 21 +21 +22 комфорт 1000.2 926.8
00 19.09 ЮВ 4 15 км ясно +15.0 +3.6 46 +14 +14 1005.6 931.2 +14.2 +28.5
03 19.09 ЮВ 1 15 км ясно +11.4 +4.1 61 +11 +11 1007.4 933.4
06 19.09 штиль 0 15 км ясно +9.6 +3.9 68 +9 +9 1007.0 933.4
09 19.09 ЮЗ 1 15 км ясно +7.4 +2.8 73 +7 +7 1009.3 934.6
12 19.09 ЮЗ 3 15 км 8/0
[Cs]
+9.8 +2.3 60 +8 +10 1011.4 936.1 +6.1 +15.0
15 19.09 ЮВ 1 15 км 8/0
[Cs]
+17.7 -0.5 29 +19 +32 опасность
простуды
1010.4 935.7
18 19.09 СВ 1 15 км 6/0
[Cs]
+21.6 -1.5 21 +21 +35 комфорт 1007.5 933.2
21 19.09 СВ 1 15 км 6/0
[Cs]
+22.2 -0.6 22 +21 +24 комфорт 1007.1 932.6
00 20.09 штиль 0 15 км ясно +17.5 +1.5 34 +18 +18 1010.1 935.2 +9.8 +23.5
03 20.09 Ю 1 15 км ясно +14.4 -0.8 35 +15 +15 1009.8 935.4
06 20.09 ЮЗ 1 15 км ясно +11.6 +0.4 46 +12 +12 1008.4 934.2
09 20.09 ЮЗ 1 15 км ясно +9.0 -0.6 51 +9 +9 1007.5 933.2
12 20.09 ЮЗ 1 15 км 3/0
[Ac lent Cc]
+10.4 -0.8 46 +10 +13 1009.4 934.6 +6.6 +17.5
15 20.09 СВ 1 15 км 6/0
[Cc]
+21.0 +1.1 27 +22 +36 комфорт 1007.5 933.8
18 20.09 С 7 15 км 4/0
[Cc]
+26.1 +1.7 20 +25 +29 комфорт 1003.7 930.5
21 20.09 СЗ 1 15 км 6/0
[Ac lent Cc]
+28.0 +7.4 27 +27 +30 жарко 1003.1 929.8
00 21.09 штиль 0 15 км 4/0
[Cs]
+20.2 +5.3 38 +21 +21 комфорт 1005.4 931.2 +10.4 +28.5
03 21.09 штиль 0 15 км 6/0
[Ac As Cs]
+17.0 +4.3 43 +17 +17 1004.7 931.4
06 21.09 штиль 0 15 км 6/0
[Ac As Cs]
+14.0 +4.9 54 +14 +14 1003.9 931.0
09 21.09 штиль 0 15 км 10/0
[Ac As]
+13.0 +4.6 57 +13 +13 1003.7 930.9
12 21.09 штиль 0 15 км 9/0
[Cs]
+13.7 +6.2 60 +13 +16 1006.4 932.6 +11.9 +20.2
15 21.09 СВ 4 15 км 9/0
[Ac lent Cs]
+22.5 +5.0 32 +23 +30 комфорт 1005.0 931.8
18 21.09 С 3 15 км 6/0
[Ac lent Cc]
+28.9 +7.3 26 +28 +38 жарко 1000.1 927.8
21 21.09 ЮЗ 1 15 км ясно +30.3 +5.7 21 +29 +32 жарко 997.6 925.4
00 22.09 штиль 0 15 км ясно +21.8 +7.4 39 +23 +23 комфорт 999.2 926.1 +13.7 +31.5
03 22.09 штиль 0 15 км 1/0
[Ac lent]
+17.7 +5.6 45 +18 +18 998.5 926.0
06 22.09 ЮЗ 3 15 км 1/0
[Ac lent]
+15.8 +1.9 39 +16 +16 996.7 924.8
09 22.09 штиль 0 15 км ясно +12.9 +2.6 50 +13 +13 996.8 924.8
12 22.09 ЮЗ 1 15 км ясно +15.5 +1.1 38 +16 +19 999.9 926.8 +11.3 +21.8
15 22.09 ЮВ 1 15 км 3/0
[Ac lent]
+29.0 +3.5 20 +27 +39 жарко 996.6 925.0
18 22.09 СЗ 9 10 км пыльный позёмок ясно +36.2 -7.1 6 +31 +32 жарко 993.3 922.5
21 22.09 СЗ 4 10 км пыльный позёмок 3/0
[Ac lent]
+33.3 -15.3 4 +29 +30 жарко 995.1 923.4
00 23.09 штиль 0 15 км ясно +23.4 -5.7 14 +21 +21 комфорт 998.1 925.4 +15.5 +36.5
03 23.09 штиль 0 15 км 6/0
[Cs]
+22.7 -3.2 18 +21 +21 комфорт 999.2 928.0
06 23.09 Ю 4 15 км 4/0
[Cs]
+18.2 +1.7 33 +18 +18 1001.2 930.1
09 23.09 Ю 3 15 км ясно +16.3 +2.0 38 +16 +16 1002.3 930.6
12 23.09 ЮВ 7 15 км ясно +15.8 +1.6 38 +14 +15 1006.2 933.0 +12.7 +24.5
15 23.09 ЮВ 7 15 км ясно +21.7 +1.4 26 +21 +26 комфорт 1005.7 933.2
18 23.09 ЮВ 7 15 км ясно +25.4 +1.3 21 +24 +28 комфорт 1003.5 931.0
21 23.09 ЮВ 4 15 км ясно +25.9 -0.3 18 +24 +26 комфорт 1004.0 931.3
00 24.09 штиль 0 15 км ясно +21.2 +2.1 28 +21 +21 комфорт 1009.0 935.3 +15.8 +26.0
03 24.09 ЮЗ 3 15 км ясно +17.8 -1.5 27 +18 +18 1011.1 937.6
06 24.09 Ю 3 15 км ясно +15.0 -2.3 30 +15 +15 1011.9 938.4
09 24.09 ЮЗ 3 15 км ясно +11.8 -1.3 40 +11 +11 1013.5 939.6
12 24.09 Ю 7 15 км ясно +13.6 -0.4 38 +12 +12 1015.5 941.0 +10.1 +21.2

 

Местоположение метеостанции San Martin (Аргентина): широта -33.08 долгота -68.41 высота над уровнем моря 653 м.

В архиве по умолчанию представлена погода в San Martin за последнюю неделю. Архивные данные за месяц целиком и за предыдущие месяцы, начиная с января 2011 года, Вы можете получить, выбрав интересующий диапазон дат из раскрывающегося списка и нажав кнопку "Ввод!".


*Определитесь, кто Вы:
робот инопланетянин человек

Внимание! Время в таблицах - всемирное. Для получения местного времени необходимо прибавить поправку, которая в San Martin равна -3 ч.

Смотрите также архив погоды в соседних городах и на ближайших метеорологических станциях:

Погода в Mendoza (Аргентина) (44 км)
Погода в San Rafael (Аргентина) (167 км)
Погода в San Juan (Аргентина) (187 км)
Погода в San Luis (Аргентина) (193 км)
Погода в Santiago (Чили) (215 км)
Погода в Pudahuel (Чили) (223 км)
Погода в Malargue (Аргентина) (290 км)
Погода в Villa Reynolds (Аргентина) (290 км)
Погода в Punta Angeles (Чили) (301 км)
Погода в San Antonio (Чили) (302 км)

Пояснения к столбцам:

Ветер - указаны скорость ветра в м/с - средняя за 10 мин, порывы в срок и между сроками (в фигурных скобках) и направление, откуда дует ветер: С - северный, СВ - северо-восточный, В - восточный, ЮВ - юго-восточный, Ю - южный, ЮЗ - юго-западный, З - западный, СЗ - северо-западный.
Видимость - горизонтальная дальность видимости в метрах или километрах. При видимости от 1 до 10 км при отсутствии осадков обычно наблюдается дымка, при ухудшении видимости до 1 км и менее - туман. В сухую погоду видимость может ухудшаться дымом, пылью или мглою.
Явления - указаны атмосферные явления, наблюдавшиеся в срок или в последний час перед сроком; фигурными скобками обозначены явления, наблюдавшиеся между сроками (за 1-3 часа до срока); квадратными скобками обозначены град или гололедные отложения с указанием их диаметра в мм.
Облачность - указаны через наклонную черту общая и нижняя облачность в баллах и высота нижней границы облаков в метрах; квадратными скобками обозначены формы облаков: Ci - перистые, Cs - перисто-слоистые, Cc - перисто-кучевые, Ac - высококучевые, As - высокослоистые, Sc - слоисто-кучевые, Ns - слоисто-дождевые, Cu - кучевые, Cb - кучево-дождевые. Подробнее классификацию облаков см. в Атласе облаков (PDF).
T - Температура воздуха - температура, измеренная на высоте 2 м над землей.
Td - Температура точки росы - температура, при понижении до которой содержащийся в воздухе водяной пар достигнет насыщения.
f - Относительная влажность воздуха - влажноcть воздуха, измеренная на высоте 2 м над землей.
Te - Эффективная температура - температура, которую ощущает одетый по сезону человек в тени. Характеристика душности погоды. При расчете учитывается влияние влажности воздуха и скорости ветра на теплоощущения человека.
Tes - Эффективная температура на солнце - температура, которую ощущает человек, с поправкой на солнечный нагрев. Характеристика знойности погоды. Зависит от высоты солнца над горизонтом, облачности и скорости ветра. Ночью, в пасмурную погоду, а также при ветре 12 м/с и более поправка равна нулю.
P - Атмосферное давление - приведенное к уровню моря атмосферное давление.
Po - Атмосферное давление - измеренное на уровне метеостанции атмосферное давление.
Tmin - Минимальная температура - минимум температуры воздуха на высоте 2 м над землей.
Tmax - Максимальная температура - максимум температуры воздуха на высоте 2 м над землей.
R - Количество осадков - Количество выпавших осадков за период времени, мм. При наведении курсора мыши на число - период времени, за который выпало указанное количество осадков.
R24 - Количество осадков - Количество выпавших осадков за 24 часа, мм.
S - Снежный покров - Высота снежного покрова, см. При наведении курсора мыши на число - состояние снежного покрова и степень покрытия местности в баллах.